Overview Statistics Trail Chart Weather Telemetry Raw packets
 

This is the latest recevied weather packets stored in our database for station/object K2CAT. If no packets are shown the sender has not sent any weather packets the latest 10 day(s).

<< 41 42 43 44 45 46 47 >>
Time Temp. Humidity Pressure Rain* Wind** Luminosity Snow
1777434708 11.11° C 73% 1017.4 hPa 0 mm - 0 W/m² -
1777434407 11.11° C 73% 1017.5 hPa 0 mm - 0 W/m² -
1777434106 11.11° C 73% 1017.3 hPa 0 mm - 0 W/m² -
1777433802 11.11° C 72% 1017.2 hPa 0 mm - 0 W/m² -
1777433498 11.67° C 72% 1017.1 hPa 0 mm - 0 W/m² -
1777433194 11.67° C 71% 1017.2 hPa 0 mm - 0 W/m² -
1777432891 11.67° C 71% 1017.1 hPa 0 mm - 0 W/m² -
1777432590 11.67° C 70% 1017.2 hPa 0 mm - 0 W/m² -
1777432287 11.67° C 70% 1017 hPa 0 mm - 0 W/m² -
1777431986 12.22° C 68% 1016.4 hPa 0 mm - 0 W/m² -
1777431683 12.22° C 68% 1016.5 hPa 0 mm - 0 W/m² -
1777431379 12.78° C 66% 1016.5 hPa 0 mm - 0 W/m² -
1777431075 12.78° C 66% 1016.5 hPa 0 mm - 0 W/m² -
1777430771 12.78° C 65% 1016.7 hPa 0 mm - 0 W/m² -
1777430468 13.33° C 63% 1016.5 hPa 0 mm - 0 W/m² -
1777430163 13.33° C 62% 1016.6 hPa 0 mm - 0 W/m² -
1777429858 13.89° C 59% 1016.7 hPa 0 mm - 0 W/m² -
1777429555 13.89° C 60% 1016.8 hPa 0 mm - 0 W/m² -
1777429250 14.44° C 59% 1017 hPa 0 mm - 0 W/m² -
1777428946 14.44° C 57% 1017.1 hPa 0 mm - 0 W/m² -
1777428642 14.44° C 54% 1017.1 hPa 0 mm - 0 W/m² -
1777428338 14.44° C 56% 1017.1 hPa 0 mm - 0 W/m² -
1777428034 14.44° C 57% 1017 hPa 0 mm - 0 W/m² -
1777427730 14.44° C 59% 1016.9 hPa 0 mm - 0 W/m² -
1777427428 14.44° C 58% 1017 hPa 0 mm - 0 W/m² -

* Rain latest hour (hover to see other rain measurements)
** Current wind speed in m/s (hover to see current wind gust speed)